Simultaneous Nadir Overpasses (SNOs) Predictions

Prediction of SNOs between AQUA and METOP-A Satellite Orbit:

Table of predicted SNOs for the next 14.0 days since TLE Epoch: 4/3/2021
Index Date (AQUA) Time (AQUA) Lat,Lon (AQUA) SZA (AQUA ) Date (METOP-A) Time (METOP-A) Lat,Lon (METOP-A) SZA (METOP-A ) Distance(km) Time Diff (sec)
1 04/04/2021 12:51:15 -77.23, 151.83 108.23 04/04/2021 12:50:09 -77.22, 151.98 108.22 3.72 66
2 04/04/2021 13:40:43 77.25, -40.61 71.79 04/04/2021 13:40:49 77.23, -40.65 71.78 1.77 6
3 04/04/2021 14:30:15 -77.54, 125.84 107.87 04/04/2021 14:31:23 -77.55, 128.04 108.02 52.76 68
4 04/07/2021 08:25:29 -77.19,-141.61 109.34 04/07/2021 08:24:31 -77.20,-141.77 109.31 4.20 58
5 04/07/2021 09:14:58 77.26, 25.76 70.73 04/07/2021 09:15:10 77.25, 25.76 70.72 1.57 12
6 04/10/2021 03:59:44 -77.21, -75.25 110.38 04/10/2021 03:58:52 -77.22, -75.35 110.35 2.73 52
7 04/10/2021 04:49:12 77.29, 92.10 69.71 04/10/2021 04:49:30 77.26, 92.17 69.67 3.11 18
8 04/12/2021 23:33:58 -77.24, -8.91 111.38 04/12/2021 23:33:12 -77.24, -8.94 111.37 0.93 46
9 04/13/2021 00:23:26 77.27, 158.60 68.65 04/13/2021 00:23:51 77.28, 158.56 68.65 0.87 25
10 04/15/2021 19:08:13 -77.28, 57.39 112.36 04/15/2021 19:07:33 -77.25, 57.47 112.38 3.17 40
11 04/15/2021 19:57:41 77.31,-135.12 67.68 04/15/2021 19:58:12 77.29,-135.04 67.64 3.23 31



Historial Predications of SNOs between AQUA and METOP-A
